Regional Weather Roundup
Issued by NWS

Home | Current Version | Previous Version | Graphics & Text | Print | Product List | Glossary On
Versions: 1 2 3 4 5 6 7 8 9 10 11 12 13 14 15 16 17 18 19 20 21 22 23 24 25 26 27 28 29 30 31 32 33 34 35 36 37 38 39 40 41 42 43 44 45 46 47 48 49 50
000
ASUS43 KMPX 270301
RWRMN
WEATHER ROUNDUP FOR MINNESOTA
NATIONAL WEATHER SERVICE TWIN CITIES/CHANHASSEN MN
900 PM CST FRI DEC 26 2014


NOTE: "FAIR" INDICATES FEW OR NO CLOUDS BELOW 12,000 FEET WITH NO
SIGNIFICANT WEATHER AND/OR OBSTRUCTIONS TO VISIBILITY. N/A MEANS
CURRENT SKY AND/OR WEATHER CONDITIONS ARE NOT AVAILABLE.

MNZ060>063-068>070-270400-
   Twin Cities Metro

CITY           SKY/WX    TMP DP  RH WIND       PRES   REMARKS
TWIN CITIES    LGT SNOW  29  26  89 N10       30.07F FOG     WCI  20
ST PAUL        LGT SNOW  29  27  92 N9        30.08F FOG     WCI  20
CRYSTAL        LGT SNOW  29  26  89 N10       30.07F FOG     WCI  20
BLAINE         LGT SNOW  30  30 100 N8        30.08F WCI  23
LAKEVILLE      CLOUDY    28  27  93 N10G16    30.04F WCI  19
EDEN PRAIRIE   LGT SNOW  29  26  89 N9        30.05F FOG     WCI  20
SOUTH ST PAUL  LGT SNOW  30  28  92 N8        30.06F WCI  23
LAKE ELMO      LGT SNOW  30  30 100 N7        30.07F WCI  23
$$
MNZ001>005-007-008-013>017-022>024-027-028-270400-
   Northwest Minnesota

CITY           SKY/WX    TMP DP  RH WIND       PRES   REMARKS
BEMIDJI        CLOUDY    19  15  82 NW7       30.14S WCI  10
HALLOCK        FLURRIES   9   7  92 N9        30.23S WCI  -5
ROSEAU         CLOUDY    14   9  79 NW10      30.19S WCI   1
WARROAD        CLOUDY    14   7  73 NW6       30.18S WCI   5
THIEF RVR FALL CLOUDY    10   9  92 NW7       30.20S WCI   0
CROOKSTON      FLURRIES  10   7  85 N8        30.24S WCI  -1
FOSSTON        CLOUDY    12  10  92 NW8       30.18S WCI   1
DETROIT LAKES  MIX PCPN  19  16  86 NW9       30.17S WCI   9
MOORHEAD       MOCLDY    12  10  92 N12       30.23F WCI  -2
PARK RAPIDS    CLOUDY    22  15  75 N7        30.12F WCI  13
MAHNOMEN       FLURRIES  14  11  89 NW10      30.18S WCI   1
$$
MNZ006-009>011-018-025>026-270400-
   North Central Minnesota

CITY           SKY/WX    TMP DP  RH WIND       PRES   REMARKS
BAUDETTE       CLOUDY    15   9  76 N9        30.16R WCI   3
FLAG ISLAND    CLOUDY    10   7  85 N7        30.17F WCI   0
INTL FALLS     FLURRIES  18  12  77 NW5       30.14S WCI  11
WASKISH        CLOUDY    19  12  73 W8        30.15S WCI   9
BIG FORK       FLURRIES  19  16  86 CALM      30.14R
LONGVILLE      CLOUDY    21  16  79 N5        30.13S WCI  15
GRAND RAPIDS   CLOUDY    21  16  79 N7        30.11S WCI  13
CRANE LAKE     CLOUDY    19  16  86 NW5       30.15F WCI  13
ORR            CLOUDY    19  12  73 CALM      30.10R
COOK           CLOUDY    21  16  79 W6        30.12R WCI  14
WALKER         CLOUDY    21  14  75 CALM      30.13S
$$
MNZ012-019>021-037-270400-
   Northeast Minnesota

CITY           SKY/WX    TMP DP  RH WIND       PRES   REMARKS
DULUTH         CLOUDY    26  18  71 N6        30.07F WCI  19
ELY            FLURRIES  21  18  86 NW8       30.10R WCI  12
HIBBING        CLOUDY    23  15  71 N7        30.11R WCI  15
EVELETH        MOCLDY    23  19  86 NW5       30.11S WCI  17
DULUTH HARBOR  CLOUDY    30  23  74 N13       30.12S WCI  20
TWO HARBORS    CLOUDY    28  23  80 NW3       30.08S
GRAND MARAIS     N/A     28  20  71 N6        30.10R WCI  22
G MARAIS ARPRT MOCLDY    19  16  86 NW3       30.05R
$$
MNZ029>031-032-039>041-046>048-054>057-064-270400-
   West Central Minnesota

CITY           SKY/WX    TMP DP  RH WIND       PRES   REMARKS
FERGUS FALLS   CLOUDY    19  12  73 N12G18    30.21S WCI   7
WHEATON        CLOUDY    19  16  86 N14       30.20S WCI   6
MORRIS         MOCLDY    23  19  86 N13       30.14S WCI  11
ALEXANDRIA     CLOUDY    23  18  81 N12       30.12F WCI  12
ELBOW LAKE     CLOUDY    21  17  86 N10       30.15F WCI  10
WADENA         CLOUDY    21  16  79 N8        30.13S WCI  12
GLENWOOD       CLOUDY    23  19  86 N12       30.11F WCI  12
APPLETON       CLOUDY    25  19  80 N13       30.15S WCI  13
BENSON         CLOUDY    25  19  80 NE12      30.14R WCI  14
ORTONVILLE     CLOUDY    21  18  86 N17       30.15F WCI   7
MADISON        CLOUDY    27  21  80 N13       30.15S WCI  16
WILLMAR        CLOUDY    27  21  80 N8        30.13S WCI  18
$$
MNZ033>034-036-042>043-049>051-058-059-270400-
   Central Minnesota

CITY           SKY/WX    TMP DP  RH WIND       PRES   REMARKS
ST CLOUD       CLOUDY    30  21  69 N5        30.10F WCI  25
SAUK CENTRE    CLOUDY    24  18  79 N10G16    30.11S WCI  13
PAYNESVILLE    CLOUDY    23  20  86 NW5       30.11S WCI  17
AITKIN         CLOUDY    25  18  74 NW6       30.10F WCI  18
PINE RIVER     CLOUDY    21  16  79 N7        30.16S WCI  13
BRAINERD       CLOUDY    22  16  78 N9        30.13S WCI  12
STAPLES        CLOUDY    21  16  79 N5        30.13S WCI  15
LONG PRAIRIE   CLOUDY    23  18  80 N10       30.11S WCI  12
LITTLE FALLS   CLOUDY    25  18  74 NW8       30.12R WCI  16
LITCHFIELD     CLOUDY    28  25  86 N8        30.10S WCI  20
BUFFALO        LGT SNOW  27  24  91 N6        30.11S WCI  20
MAPLE LAKE     CLOUDY    28  25  86 N7        30.10S WCI  21
$$
MNZ037-044-045-052-053-270400-
   East Central Minnesota

CITY           SKY/WX    TMP DP  RH WIND       PRES   REMARKS
PRINCETON      CLOUDY    28  23  80 N8        30.10S WCI  20
MORA           CLOUDY    27  19  74 CALM      30.12S
CAMBRIDGE      CLOUDY    30  21  69 N5        30.07F WCI  25
RUSH CITY      CLOUDY    29  23  79 N8        30.09F WCI  21
MOOSE LAKE     CLOUDY    28  19  69 N6        30.08F WCI  22
HINCKLEY       CLOUDY    30  23  74 CALM      30.10S
CLOQUET        CLOUDY    27  18  69 N8        30.09S WCI  18
MCGREGOR       CLOUDY    27  19  74 N7        30.11F WCI  19
$$
MNZ071>073-080-081-089-090-097-098-270400-
   Southwest Minnesota

CITY           SKY/WX    TMP DP  RH WIND       PRES   REMARKS
MONTEVIDEO     CLOUDY    25  21  86 NE12      30.15S WCI  14
GRANITE FALLS  CLOUDY    26  21  82 N13       30.14S WCI  15
CANBY          CLOUDY    23  20  87 N10G18    30.14F WCI  13
MARSHALL       CLOUDY    23  18  80 N17       30.10F WCI   9
REDWOOD FALLS  LGT SNOW  26  24  92 N8        30.10S FOG     WCI  18
OLIVIA         LGT SNOW  27  23  86 N8        30.10S WCI  18
PIPESTONE      LGT SNOW  21  19  93 NE13      30.06S WCI   9
WINDOM         FLURRIES  27  25  93 N14       30.05S WCI  15
WORTHINGTON    CLOUDY    25 -22  12 N10       30.05F WCI  15
JACKSON        FLURRIES  28  27  93 VRB10     30.04F WCI  19
TRACY          LGT SNOW  25  24  95 N14       30.08F WCI  13
SLAYTON        LGT SNOW  23  21  94 N13       30.06S WCI  11
$$
MNZ065>067-074>077-082>085-091>093-270400-
   South Central Minnesota

CITY           SKY/WX    TMP DP  RH WIND       PRES   REMARKS
MANKATO        CLOUDY    28  25  86 N10       30.05S WCI  19
NEW ULM        LGT SNOW  27  27 100 N7        30.08R WCI  19
ST JAMES       CLOUDY    28  27  93 N10       30.08R WCI  19
FAIRMONT       CLOUDY    28  25  86 N15       30.03F WCI  17
GLENCOE        LGT SNOW  28  28  97 N10       30.07F WCI  19
FARIBAULT      CLOUDY    30  27  86 N10       30.04S WCI  21
OWATONNA       LGT SNOW  30  27  86 N10       30.02F WCI  21
ALBERT LEA     CLOUDY    30  30 100 N10       30.01S FOG     WCI  21
$$
MNZ078>079-086>088-094>096-270400-
   Southeast Minnesota

CITY           SKY/WX    TMP DP  RH WIND       PRES   REMARKS
ROCHESTER      LGT SNOW  31  29  92 N9        30.00S FOG     WCI  23
RED WING       MIX PCPN  32  28  86 NE7       30.04S WCI  26
STANTON        CLOUDY    31  28  88 N9        30.03S WCI  23
DODGE CENTER   LGT SNOW  30  30 100 N9        30.00F WCI  22
WINONA         LGT SNOW  34  32  93 CALM      30.03R
AUSTIN         LGT SNOW  30  28  93 N8        29.99F WCI  23
PRESTON        LGT SNOW  31  31  98 NE5       29.99F WCI  26
$$
ABBREVIATIONS USED IN REMARKS
   TC - TEMPERATURES IN CELSIUS
  WCI - WIND CHILL INDEX
   HX - HEAT INDEX
  VSB - VISIBILITY
$$



USA.gov is the U.S. government's official web portal to all federal, state and local government web resources and services.